7 * 24
多渠道服务支持
STARLINK-1133是美国SpaceX星链互联网卫星星座的一员,于2024年11月9日发射入轨。星链计划旨在构建全球卫星互联网星座,为全球不同地区提供高速低延迟的宽带互联网服务,这颗卫星入轨后将和其他星链卫星协同,进一步补充星链星座的全球覆盖能力。
美国
(US)
| 数据来源 | 国际轨道数据 |
| 星历时间: | 2026-09-10T06:16:06+0800 1天前 查看轨道信息 |
| 半长轴: | 6737.862km |
| 偏心率: | 0.0001047 |
| 轨道倾角: | 53.160° |
| 近地点辐角 | 96.507° |
| 升交点赤经 | 167.863° |
| 平近点角 | 263.606° |
| 近地点: | 359.019km |
| 远地点: | 360.431km |
| 周期: | 91.737分钟 |
| 每日圈数: | 15.697109 |